User: anonymous   Login
Location: Saddleback Butte
(34.6776°N, 117.8050°W)
Time: 10:49:03
(UTC-07:00)
Language:

Cosmos 1862 Rocket - Orbit

View from above orbital plane
View from above orbital plane
View from above satellite
View from above satellite

Ground track
Ground track

The orbit data is extracted from the following two-line orbital elements,

1 18153U 87055B   14303.52170363  .00000534  00000-0  63025-4 0  4909
2 18153 082.4986 286.1861 0021625 011.8808 127.4381 14.82720009475983
Epoch (UTC): 30 October 2014 12:31:15
Eccentricity: 0.0021625
inclination: 82.4986°
perigee height: 605 km
apogee height: 636 km
right ascension of ascending node: 286.1861°
argument of perigee: 11.8808°
revolutions per day: 14.82720009
mean anomaly at epoch: 127.4381°
orbit number at epoch: 47598

The dashed part of the orbit path shows where the satellite is in the earth's shadow,  

DLR